Weather in Nadezhdinskoye

Russia / Jewish Autonomous Oblast     48°17′35″N   133°11′18″E
temp.,
°C
wind,
m/s
gust,
m/s
humid.,
%
clouds,
%
prec.,
mm/h
press.,
hPa
HPBL,
m
19 april, mon
mon1901:00+7ene00645 0.0 100510
04:00+6nnw22715 0.0 100418
07:00+5nw22741 0.0 100333
10:00+11nw22510 0.0 1002515
13:00+15nw46365 0.0 9991907
16:00+18nw8112774 0.0 9972893
19:00+16wnw812348 0.0 9981185
22:00+8nw1015476 0.0 1001893
20 april, tue
tue2001:00+3nw1115320 0.0 1003929
04:00+1wnw1218320 0.0 10061137
07:00−1wnw1120360 0.0 10081463
10:00+2wnw1220272 0.0 10082290
13:00+5nw13182599 0.0 10092448
16:00+8nw1013220 0.0 10102341
19:00+8nw912240 0.0 10111512
22:00+5wnw713250 0.0 1015492
21 april, wed
wed2101:00+4wnw511280 0.0 1016266
04:00+2w38350 0.0 1017140
07:00+3w37341 0.0 1019112
10:00+11w45220 0.0 1019403
13:00+16wsw44200 0.0 10181051
16:00+19wsw34200 0.0 10171292
19:00+18sw22260 0.0 101724
22:00+14se333035 0.0 101819
22 april, thu
thu2201:00+11se453689 0.0 101955
04:00+9sse354298 0.0 102062
07:00+8e3647100 0.0 1020100
10:00+15se3532100 0.0 1020393
13:00+20ssw3526100 0.1 10201084
16:00+22sw3423100 0.1 10181443
19:00+20w2233100 0.0 101925
22:00+17wsw2238100 0.0 102015
23 april, fri
fri2301:00+15w2242100 0.0 102110
04:00+14w2246100 0.0 102110
07:00+13wsw1152100 0.0 102211
10:00+17n2242100 0.0 1023267
13:00+21sw3334100 0.0 10221184
16:00+21sw774097 0.0 10201795
19:00+18wsw585479 0.0 1020603
22:00+13wnw71343100 0.0 1020381